STARLINK-5200 (54103 NORAD) Tracking and Keplerian Element Data

This shows tracking and keplerian element data for the satellite.

Feedback or suggestion? Click here.




ElementValue
Catalog54103
NameSTARLINK-5200
Epoch Orbit130
Epoch Day324.91667824
Epoch Year2022
RAAN352.9298
Inclination53.2145
Eccentricity0.0003321
Argument of Perigee5.6513
Mean Anonmoly149.9868
Mean Motion15.73183535
Decay Rate-0.00055436
L11 54103U 22136BE 22324.91667824 -.00055436 00000+0 -39329-3 0 9996
L22 54103 53.2145 352.9298 0003321 5.6513 149.9868 15.73183535 1302



Live tracking and technical data element details for STARLINK-5200 (NORAD 54103). STARLINK-5200 can be tracked NOW for your location showing map with azimuth and elevation plus other details from your city location.







IsCatalogInMostPopularTable: catalog: 54103, numindb: 2
Update: records affected: 1



GetName: 54103 STARLINK-5200

Hit Count: updated at: Fri, 09 Dec 2022 19:59:30 GMT